Location: Calvera
(42.3882°N, 0.6137°E)
Time: 14:43:30
(UTC+00:00)

Cosmos 2344 - Pass Details

Date: 28 October 2020
Orbit: 1246 x 2997 km, 63.3° (Epoch: 25 November)

Event Time Altitude Azimuth Distance (km) Brightness Sun altitude
Exits shadow 04:47:40 24° 297° (WNW) 2,362 4.5 -18.8°
Maximum altitude 04:50:21 29° 330° (NNW) 2,176 4.5 -18.3°
Drops below altitude 10° 04:57:27 10° 29° (NNE) 3,592 6.3 -17.0°
Sets 05:01:15 0° 40° (NE) 4,785 7.1 -16.3°
